Find Starlink 30547

NORAD ID: 58044 Int'l Des: 2023-156 Owner: SPXS Country: US Constellation: starlink operational
LEOCIRCULAR

当前视图

正在加载3D地球...

About Starlink 30547

Starlink 30547 (NORAD 58044) is a starlink constellation satellite (v2 mini) launched Oct 9, 2023 by SPXS of US. It operates in LEO, CIRCULAR orbit with a mass of 730.00 kg.

即将过境

Passes for default location (London). Set your location on the main map for personalized predictions.

高度历史

Loading altitude history...

两行轨道根数

1 58044U 23156S 26264.49564101 .00000332 00000-0 20977-4 0 9995
2 58044 53.1640 334.9525 0001582 90.6950 269.4234 15.34394264165067
Epoch: Sep 21, 2026 • Age: 30 hours

当前状态

高度 463.9 km
远地点 / 近地点 N/A
速度 7.64 km/s
星下点 -2.41°S, 126.68°W
发射日期 Oct 9, 2023
运行时间 2.9 years
类型 internet

技术详情

分类 Payload
质量 730.00 kg
干质量 700.00 kg
长度 0.30 m
跨度 29.00 m
形状 ? Box + pan
制造商 SPXS
平台类型 Starlink V2M
阶段状态 In Orbit
所有者/国家 SPXS/US

Most Searched